Retour au catalogue

EXPLORER 38 DEB

LostMEO
NORAD 3848·DEBRIS·🇺🇸 United States

Lancé Jul 4, 1968 depuis Vandenberg Space Force Base

Loading…

Prochains Passages (prochaines 24 heures)

TLE

PériméSource: Space-Track

Époque: Aug 13, 2024, 07:04 UTC

1 03848U 68055C   24226.29490897 -.00000010  00000-0  00000-0 0  9993
2 03848 120.8322 182.0702 0017060 226.2180 133.7010  6.42500615216810

Suivez EXPLORER 38 DEB en temps réel avec AllMySat

Download on the App Store